Total_Precipitation_Accumulation
1.64 1.73 1.64 1.63 1.52 1.50 1.46 1.29 1.21 1.18 1.09 0.98 0.79 0.75 0.78 0.71 0.78 0.95 1.00 1.03 1.07 1.33 1.69 1.85 1.73 1.50 1.43 1.40 1.38 1.30 1.14 1.03 0.92 0.80 0.70 0.63 0.61 0.61 0.56 0.54 0.53 0.47 0.45
1.86 1.91 1.90 1.90 1.86 1.83 1.91 1.71 1.52 1.59 1.45 1.37 1.22 1.15 1.10 1.09 1.12 1.21 1.37 1.29 1.12 1.21 1.52 1.84 1.94 1.87 1.82 1.75 1.65 1.48 1.34 1.24 1.15 1.08 0.98 0.87 0.79 0.72 0.68 0.66 0.61 0.55 0.52
1.99 2.06 2.23 2.19 2.12 2.10 2.15 2.12 1.97 1.98 1.80 1.68 1.56 1.41 1.37 1.45 1.46 1.41 1.54 1.67 1.44 1.38 1.42 1.57 1.76 1.89 1.96 1.98 1.92 1.78 1.61 1.46 1.37 1.32 1.25 1.14 1.04 0.96 0.90 0.82 0.74 0.71 0.69
2.12 2.34 2.45 2.44 2.41 2.33 2.44 2.55 2.48 2.29 2.17 1.99 1.84 1.60 1.51 1.61 1.66 1.65 1.68 1.81 1.93 1.79 1.69 1.58 1.63 1.74 1.91 2.03 2.07 2.07 1.94 1.74 1.57 1.49 1.44 1.37 1.29 1.17 1.03 0.91 0.86 0.86 0.84
2.53 2.64 2.78 2.87 2.86 2.88 2.87 2.75 2.85 2.64 2.57 2.41 2.10 1.91 1.69 1.63 1.70 1.65 1.72 1.73 1.83 1.87 1.88 1.80 1.68 1.69 1.86 2.12 2.17 2.24 2.23 2.10 1.94 1.77 1.62 1.50 1.46 1.36 1.20 1.09 1.02 0.96 0.92
3.20 3.31 3.29 3.32 3.33 3.37 3.22 3.17 3.16 2.93 2.75 2.70 2.30 2.11 1.94 1.78 1.76 1.72 1.69 1.70 1.65 1.57 1.66 1.75 1.82 1.68 1.80 1.92 2.03 2.18 2.32 2.43 2.32 2.12 1.99 1.86 1.73 1.57 1.35 1.21 1.10 1.03 0.99
4.18 4.24 4.12 4.01 3.86 3.74 3.55 3.42 3.24 3.07 2.83 2.74 2.61 2.28 1.86 1.61 1.59 1.51 1.54 1.65 1.64 1.57 1.59 1.66 1.72 1.66 1.58 1.60 1.64 1.82 2.08 2.38 2.52 2.45 2.31 2.14 1.90 1.73 1.56 1.41 1.28 1.19 1.11
5.06 5.17 5.09 4.88 4.64 4.30 3.85 3.52 3.32 3.16 2.90 2.86 2.81 2.72 2.18 1.79 1.51 1.24 1.30 1.36 1.41 1.49 1.47 1.46 1.54 1.64 1.58 1.53 1.41 1.48 1.66 1.94 2.26 2.48 2.47 2.30 2.12 1.96 1.83 1.70 1.56 1.44 1.32
5.23 5.43 5.41 5.14 4.74 4.18 3.68 3.50 3.40 3.26 3.07 2.97 2.83 2.88 2.48 2.08 1.75 1.35 1.15 1.09 1.16 1.19 1.19 1.24 1.31 1.42 1.42 1.44 1.37 1.38 1.46 1.58 1.90 2.19 2.17 1.98 1.86 1.80 1.77 1.76 1.72 1.62 1.52
5.06 4.96 4.81 4.40 3.93 3.59 3.33 3.24 3.21 3.02 2.98 2.89 2.81 2.53 2.30 2.07 1.88 1.57 1.27 1.10 1.09 1.10 1.10 1.09 1.17 1.34 1.40 1.39 1.35 1.35 1.35 1.42 1.59 1.78 1.88 1.82 1.72 1.70 1.73 1.76 1.76 1.75 1.76
4.28 3.92 3.56 3.26 3.12 2.91 2.70 2.61 2.59 2.53 2.40 2.35 2.36 2.31 2.24 2.02 1.75 1.57 1.40 1.23 1.21 1.13 1.11 1.12 1.18 1.26 1.34 1.37 1.37 1.41 1.39 1.32 1.37 1.40 1.47 1.51 1.55 1.60 1.67 1.74 1.81 1.83 1.83
3.52 3.06 2.81 2.56 2.41 2.23 2.02 1.90 1.88 1.91 1.98 2.04 2.10 2.08 2.04 2.02 1.88 1.79 1.68 1.49 1.37 1.32 1.21 1.16 1.19 1.26 1.39 1.48 1.52 1.70 1.45 1.31 1.29 1.28 1.26 1.28 1.32 1.38 1.49 1.61 1.73 1.81 1.88
3.15 2.69 2.28 2.07 1.83 1.66 1.58 1.52 1.47 1.47 1.55 1.65 1.79 1.84 1.82 1.80 1.77 1.79 1.83 1.70 1.52 1.38 1.25 1.22 1.25 1.30 1.34 1.44 1.56 1.74 1.54 1.46 1.34 1.22 1.14 1.12 1.13 1.16 1.22 1.30 1.42 1.54 1.68
2.57 2.22 1.80 1.48 1.28 1.14 1.08 1.10 1.15 1.21 1.23 1.28 1.37 1.50 1.53 1.52 1.57 1.64 1.72 1.78 1.77 1.56 1.31 1.24 1.31 1.35 1.35 1.36 1.56 1.63 1.40 1.47 1.32 1.24 1.18 1.13 1.07 1.05 1.07 1.13 1.27 1.39 1.42
1.75 1.54 1.31 1.13 1.01 0.95 0.89 0.86 0.87 0.89 0.95 1.01 1.08 1.18 1.29 1.35 1.37 1.45 1.55 1.65 1.70 1.66 1.49 1.31 1.30 1.30 1.29 1.31 1.47 1.19 1.11 1.29 1.22 1.18 1.15 1.08 0.99 0.96 0.94 0.95 0.99 1.07 1.12
1.11 1.05 0.95 0.89 0.83 0.75 0.73 0.74 0.72 0.70 0.79 0.83 0.84 0.92 1.03 1.14 1.22 1.30 1.41 1.48 1.50 1.48 1.45 1.28 1.20 1.21 1.21 1.19 1.31 1.00 0.98 1.16 1.06 1.00 0.97 0.96 0.92 0.88 0.86 0.86 0.87 0.89 0.89
0.83 0.80 0.76 0.73 0.71 0.68 0.65 0.62 0.63 0.61 0.65 0.76 0.84 0.89 0.93 0.99 1.05 1.09 1.14 1.20 1.30 1.37 1.45 1.44 1.30 1.24 1.22 1.18 1.13 0.97 0.88 0.84 0.89 0.94 0.89 0.87 0.83 0.79 0.77 0.73 0.66 0.62 0.61
0.74 0.72 0.70 0.69 0.69 0.69 0.68 0.65 0.61 0.59 0.61 0.67 0.72 0.76 0.77 0.76 0.83 0.91 0.96 0.99 1.06 1.14 1.26 1.37 1.30 1.17 1.11 1.10 1.06 0.98 0.84 0.73 0.70 0.78 0.75 0.71 0.70 0.68 0.64 0.60 0.56 0.50 0.46
0.71 0.66 0.64 0.64 0.66 0.66 0.62 0.61 0.59 0.57 0.56 0.58 0.60 0.60 0.63 0.64 0.67 0.70 0.73 0.78 0.84 0.89 0.98 1.05 1.07 1.01 0.97 0.93 0.94 0.89 0.80 0.78 0.67 0.68 0.62 0.58 0.56 0.54 0.51 0.45 0.43 0.45 0.43
0.66 0.67 0.65 0.61 0.57 0.52 0.46 0.43 0.42 0.42 0.39 0.41 0.41 0.43 0.49 0.55 0.57 0.58 0.56 0.58 0.63 0.73 0.80 0.87 0.89 0.88 0.86 0.81 0.82 0.83 0.77 0.70 0.64 0.53 0.54 0.48 0.44 0.41 0.41 0.40 0.37 0.36 0.36
0.53 0.52 0.49 0.44 0.36 0.30 0.27 0.25 0.26 0.28 0.29 0.29 0.30 0.29 0.32 0.40 0.48 0.49 0.47 0.50 0.57 0.65 0.69 0.73 0.72 0.70 0.71 0.75 0.77 0.71 0.65 0.60 0.55 0.47 0.51 0.48 0.46 0.46 0.50 0.48 0.42 0.37 0.35
0.49 0.40 0.34 0.32 0.27 0.21 0.21 0.19 0.20 0.26 0.29 0.29 0.30 0.30 0.30 0.32 0.36 0.37 0.42 0.53 0.63 0.64 0.66 0.69 0.67 0.68 0.68 0.67 0.67 0.66 0.66 0.66 0.66 0.52 0.52 0.50 0.46 0.51 0.49 0.46 0.42 0.36 0.32
0.48 0.43 0.35 0.29 0.28 0.24 0.20 0.17 0.17 0.24 0.30 0.31 0.32 0.33 0.29 0.28 0.32 0.33 0.38 0.45 0.50 0.52 0.60 0.71 0.77 0.73 0.72 0.73 0.75 0.71 0.72 0.75 0.72 0.62 0.69 0.65 0.49 0.46 0.37 0.33 0.32 0.27 0.28
0.50 0.47 0.41 0.36 0.32 0.23 0.17 0.14 0.15 0.23 0.31 0.31 0.32 0.33 0.34 0.34 0.34 0.36 0.36 0.39 0.45 0.51 0.54 0.60 0.73 0.71 0.65 0.68 0.73 0.77 0.79 0.79 0.77 0.73 0.77 0.79 0.55 0.46 0.35 0.40 0.37 0.25 0.22
0.46 0.44 0.40 0.38 0.38 0.29 0.15 0.12 0.14 0.26 0.36 0.33 0.27 0.26 0.29 0.32 0.34 0.34 0.38 0.47 0.52 0.56 0.49 0.52 0.61 0.68 0.70 0.70 0.67 0.71 0.86 0.98 0.93 0.74 0.70 0.76 0.64 0.52 0.43 0.43 0.38 0.30 0.24
0.45 0.39 0.34 0.34 0.34 0.30 0.19 0.15 0.17 0.27 0.36 0.33 0.30 0.28 0.26 0.27 0.28 0.28 0.36 0.49 0.59 0.59 0.53 0.56 0.70 0.79 0.77 0.82 0.78 0.79 0.96 1.01 0.96 0.89 0.72 0.73 0.70 0.65 0.62 0.46 0.41 0.38 0.37